Regional Weather Roundup
Issued by NWS

Home | Current Version | Previous Version | Graphics & Text | Print | Product List | Glossary Off
Versions: 1 2 3 4 5 6 7 8 9 10 11 12 13 14 15 16 17 18 19 20 21 22 23 24 25 26 27 28 29 30 31 32 33 34 35 36 37 38 39 40 41 42 43 44 45 46 47 48

000
ASUS43 KDMX 092007
RWRIA

WEATHER ROUNDUP FOR IOWA
NATIONAL WEATHER SERVICE DES MOINES IA
300 PM CDT WED JUL 09 2014

NOTE: "FAIR" INDICATES FEW OR NO CLOUDS BELOW 12,000 FEET WITH NO
SIGNIFICANT WEATHER AND/OR OBSTRUCTIONS TO VISIBILITY.

* - THESE STATIONS ARE NOT NWS STATIONS...THUS NOT UNDER NWS
QUALITY CONTROL.  THEY ALSO DO NOT REPORT WEATHER SUCH
AS PRECIPITATION OR FOG.

IAZ001>003-012>014-020>022-031>034-043>046-092100-
   NORTHWEST IOWA

CITY           SKY/WX    TMP DP  RH WIND       PRES   REMARKS
CARROLL *      PTSUNNY   77  59  53 W8G15     30.05S
CHEROKEE *     MOSUNNY   79  61  53 SW9       30.04S HX  80
DENISON *      PTSUNNY   77  61  57 SW5       30.04S
LE MARS *      PTSUNNY   81  61  50 SW6G12    30.04S HX  81
ORANGE CITY *  MOSUNNY   81  57  44 W7        30.04F HX  81
SHELDON *      SUNNY     79  59  50 SW10      30.02F HX  80
SIOUX CITY     MOSUNNY   80  61  52 SW8       30.03F HX  81
SPENCER        MOSUNNY   80  58  46 W9        30.03F HX  80
STORM LAKE *   MOSUNNY   77  61  57 W7G14     30.05F
$$

IAZ055>058-069>071-079>083-090>094-092100-
   SOUTHWEST IOWA

CITY           SKY/WX    TMP DP  RH WIND       PRES   REMARKS
ATLANTIC *     SUNNY     79  59  50 VRB6      30.06S HX  80
AUDUBON *      SUNNY     81  61  50 SW3       30.08R HX  81
CLARINDA *     SUNNY     81  57  44 VRB5      30.07F HX  81
COUNCIL BLFS * MOSUNNY   81  63  54 VRB5      30.05S HX  82
CRESTON *      MOSUNNY   77  57  50 CALM      30.07S
HARLAN  *      MOSUNNY   79  61  53 W7        30.09S HX  80
LAMONI         SUNNY     80  58  46 VRB6      30.06S HX  80
RED OAK *      MOSUNNY   79  61  53 VRB6G12   30.06F HX  80
SHENANDOAH *   MOSUNNY   81  61  50 VRB7      30.07S HX  81
$$

IAZ047>049-059>061-072>074-084-092100-
   CENTRAL IOWA

CITY           SKY/WX    TMP DP  RH WIND       PRES   REMARKS
AMES           MOSUNNY   78  57  48 W8G16     30.04S
ANKENY *       MOSUNNY   77  55  47 W8G14     30.04S
CHARITON *     MOSUNNY   77  57  50 N7        30.05F
DES MOINES     MOSUNNY   79  55  43 W8        30.04S
GRINNELL*      MOSUNNY   75  55  50 NW6       30.05F
KNOXVILLE *    SUNNY     75  54  46 VRB5G13   30.04S
MARSHALLTOWN   MOSUNNY   77  57  50 W9        30.04S
PELLA *        MOSUNNY   79  57  47 W7        30.06S HX  80
PERRY *        PTSUNNY   79  57  47 NW5       30.05S HX  80
$$

IAZ004>006-015-016-023>025-035-036-092100-
   NORTH CENTRAL IOWA

CITY           SKY/WX    TMP DP  RH WIND       PRES   REMARKS
ALGONA *       PTSUNNY   79  54  41 NW7       30.02F
CLARION *      MOSUNNY   77  55  47 W9G20     30.03S
ESTHERVILLE    PTSUNNY   79  53  40 NW9       30.01
FORT DODGE *   MOSUNNY   79  57  47 W6        30.04F HX  80
MASON CITY     MOSUNNY   78  53  41 NW10      30.03F
FOREST CITY *  MOSUNNY   77  55  47 NW7       30.02S
IOWA FALLS *     N/A     77  54  44 W7        30.05S
$$

IAZ007>011-017>019-026>030-037>042-050>054-066-092100-
   NORTHEAST IOWA

CITY           SKY/WX    TMP DP  RH WIND       PRES   REMARKS
CEDAR RAPIDS   MOSUNNY   77  54  44 NW9       30.02F
CHARLES CITY * PTSUNNY   75  55  50 W12       30.03S
CLINTON *      PTSUNNY   75  55  50 NW9       30.04S
DECORAH *        N/A    N/A N/A N/A MISG        N/A
DUBUQUE        PTSUNNY   74  55  51 NW9       30.03R
MONTICELLO *   MOSUNNY   77  55  47 NW12      30.02S
OELWEIN *      PTSUNNY   75 -35   1 NW9       30.03F
WATERLOO       PTSUNNY   79  53  40 N7        30.01F
$$

IAZ064-065-067-068-078-092100-
   EAST CENTRAL IOWA

CITY           SKY/WX    TMP DP  RH WIND       PRES   REMARKS
DAVENPORT      MOSUNNY   75  55  49 NW9       30.02S
IOWA CITY      MOSUNNY   76  56  49 NW12      30.04S
MT. PLEASANT * SUNNY     79  52  38 N6        30.03S
MUSCATINE *    MOSUNNY   77  55  47 NW8       30.02S
QUAD CITIES    SUNNY     79  55  43 NW8       30.01R
$$

IAZ062-063-075>077-085>089-095>099-092100-
   SOUTHEAST IOWA

CITY           SKY/WX    TMP DP  RH WIND       PRES   REMARKS
BURLINGTON     SUNNY     80  53  39 N8        30.03S HX  80
FAIRFIELD *    MOSUNNY   75  55  50 N8        30.04S
FORT MADISON * MOSUNNY   79  55  44 NW8       30.03F
KEOKUK *       SUNNY     77  57  50 N8        30.02F
OSKALOOSA *      N/A     77  57  50 NW6       30.05S
CENTERVILLE *  SUNNY     77  57  50 W6        30.07S
OTTUMWA        SUNNY     77  57  50 N7        30.04F
WASHINGTON *   MOSUNNY   75  57  53 NW6G14    30.04S
$$

ABBREVIATIONS USED IN REMARKS
   TC - TEMPERATURES IN CELSIUS
  WCI - WIND CHILL INDEX
   HX - HEAT INDEX
  VSB - VISIBILITY
$$




USA.gov is the U.S. government's official web portal to all federal, state and local government web resources and services.